Flag for Lithuania Weather past 2 weeks in Kaunas, Lithuania

Now
36 °F

Overcast.


Feels Like: 27 °F
Forecast: 35 / 42 °F
Wind: 13 mph from West

Location: Kaunas

Current Time: Apr 2, 2015 at 7:47:05 AM

Latest Report: Apr 2, 2015 at 7:20 AM


Visibility: N/A

Pressure: 29.33 "Hg

Humidity: 87%

Dew point: 32 °F

Location of KaunasLocation

Historic Weather in Kaunas — Graph

°F

Kaunas temperature yesterday

Maximum temperature yesterday: 43 °F (at 1:50 PM)
Minimum temperature yesterday: 36 °F (at 10:50 PM)
Average temperature yesterday: 39 °F

Past Weeks' High & Low Weather Summary

 TemperatureHumidityPressure
High63 °F (Mar 26, 2:20 PM)93% (Mar 21, 10:20 AM)30.69 "Hg (Mar 21, 10:20 AM)
Low21 °F (Mar 22, 5:20 AM)13% (Mar 18, 3:50 PM)28.97 "Hg (Apr 1, 5:20 AM)
Average40 °F64%29.84 "Hg
* Reported Mar 18 5:20 AM — Apr 2 6:20 AM, Kaunas, Weather by CustomWeather, © 2015

Note: Actual official high and low records may vary slightly from our data, if they occured in-between our weather recording intervals... More about our weather records

Advertising

Kaunas weather history for previous 24 hours

 ConditionsComfort  
Time TempWeatherWind HumidityBarometerVisibility
6:20 AM
Thu, Apr 2
36 °FOvercast.10 mph81%29.33 "HgN/A
5:50 AM34 °FMostly cloudy.6 mph87%29.30 "HgN/A
5:20 AM34 °FOvercast.10 mph87%29.30 "HgN/A
4:50 AM34 °FClear.9 mph87%29.30 "Hg10 mi
4:20 AM34 °FClear.9 mph87%29.30 "Hg10 mi
3:50 AM34 °FClear.10 mph87%29.33 "Hg10 mi
3:20 AM34 °FMostly cloudy.13 mph87%29.33 "HgN/A
2:50 AM34 °FMostly cloudy.12 mph87%29.30 "HgN/A
2:20 AM34 °FPassing clouds.12 mph87%29.30 "HgN/A
1:50 AM34 °FMostly cloudy.12 mph87%29.30 "HgN/A
1:20 AM36 °FOvercast.14 mph81%29.30 "HgN/A
12:50 AM36 °FOvercast.15 mph87%29.30 "HgN/A
12:20 AM36 °FDrizzle. Mostly cloudy.15 mph87%29.30 "HgN/A
11:50 PM
Wed, Apr 1
36 °FLight rain. Mostly cloudy.14 mph87%29.27 "HgN/A
11:20 PM36 °FLight rain. Low clouds.14 mph87%29.27 "HgN/A
10:50 PM36 °FLight rain. Overcast.13 mph93%29.27 "HgN/A
10:20 PM37 °FLight rain. Mostly cloudy.13 mph87%29.27 "Hg6 mi
9:50 PM37 °FLight rain. Low clouds.13 mph87%29.24 "Hg4 mi
9:20 PM37 °FLight rain. Mostly cloudy.12 mph87%29.24 "Hg4 mi
8:50 PM37 °FLight rain. Low clouds.13 mph87%29.24 "HgN/A
8:20 PM37 °FLight rain. Low clouds.12 mph93%29.21 "HgN/A
7:50 PM37 °FLight rain. Low clouds.13 mph87%29.21 "HgN/A
7:20 PM37 °FLight rain. Low clouds.14 mph87%29.21 "HgN/A
6:50 PM37 °FLight rain. Mostly cloudy.13 mph93%29.18 "HgN/A
6:20 PM39 °FLight rain. Low clouds.10 mph87%29.18 "HgN/A
5:50 PM39 °FLight rain. Mostly cloudy.10 mph87%29.18 "HgN/A
5:20 PM39 °FLight rain. Mostly cloudy.10 mph87%29.15 "HgN/A
4:50 PM39 °FLight rain. Low clouds.12 mph87%29.15 "HgN/A
4:20 PM37 °FLight rain. Low clouds.12 mph87%29.12 "HgN/A
3:50 PM39 °FLight rain. Mostly cloudy.14 mph87%29.12 "HgN/A
3:20 PM39 °FLight rain. Mostly cloudy.15 mph87%29.12 "HgN/A
2:50 PM41 °FLight rain. Mostly cloudy.14 mph81%29.09 "HgN/A
2:20 PM41 °FMostly cloudy.12 mph81%29.09 "HgN/A
1:50 PM43 °FLight rain. Mostly cloudy.10 mph81%29.09 "HgN/A
1:20 PM41 °FLight rain. Cloudy.7 mph87%29.06 "HgN/A
12:50 PM41 °FLight rain. Mostly cloudy.7 mph87%29.06 "Hg5 mi
12:20 PM41 °FLight rain. Mostly cloudy.8 mph81%29.06 "HgN/A
11:50 AM41 °FMore clouds than sun.7 mph87%29.03 "HgN/A
11:20 AM41 °FLight rain. Mostly cloudy.7 mph87%29.03 "Hg6 mi
10:50 AM39 °FLight rain. Low clouds.8 mph93%29.03 "HgN/A
10:20 AM41 °FLight rain. Low clouds.6 mph87%29.00 "Hg4 mi
9:50 AM39 °FLight rain. Mostly cloudy.7 mph93%29.00 "Hg4 mi
9:20 AM39 °FLight rain. Mostly cloudy.6 mph93%29.00 "Hg4 mi
8:50 AM41 °FLight rain. Mostly cloudy.6 mph87%29.00 "Hg4 mi
8:20 AM39 °FLight rain. Low clouds.6 mph93%29.00 "Hg4 mi
7:50 AM39 °FDrizzle. Low clouds.5 mph93%29.00 "Hg5 mi
7:20 AM39 °FSleet. Low clouds.7 mph93%28.97 "Hg5 mi
Weather by CustomWeather, © 2015

See weather overviewHow to use our weather pages